Helicity
35 31 27 25 25 20 17 19 28 33 42 58 61 60 59 58 89 6 23 -7 51 45 -9 43 74 93 70 49 10 -31 -13 -5 -16 -6 73 34 34 10 34 18 -6 59 74 68 105
34 31 29 27 25 23 20 18 21 22 32 53 63 68 72 58 37 37 33 40 10 3 8 45 90 62 36 -28 34 45 16 30 65 156 28 35 36 27 21 58 76 152 163 24 142
34 34 29 28 29 29 24 20 22 25 29 40 45 66 88 86 33 19 113 77 13 6 22 54 50 54 107 -7 116 81 20 118 102 -8 130 47 30 103 46 32 74 157 75 22 69
37 30 30 31 32 39 40 34 30 27 26 30 48 58 72 6 21 64 35 27 2 -3 27 83 36 -22 27 -49 69 88 47 44 -54 150 204 37 52 28 5 6 79 93 45 16 83
46 34 31 33 38 42 48 46 34 26 28 27 37 56 4 -35 -2 75 36 20 -9 -1 36 71 59 102 -0 29 -15 79 116 55 30 135 66 121 -6 9 11 44 42 49 14 47 142
69 55 38 37 40 47 51 49 42 26 19 24 30 45 -28 10 89 43 10 8 1 12 50 49 44 57 67 17 54 88 19 19 78 192 46 -2 92 54 37 23 55 28 24 36 108
85 80 53 40 39 50 58 53 35 23 17 21 14 -37 -32 24 18 36 5 -4 -2 26 57 33 1 38 18 30 70 45 -1 23 3 76 73 71 28 147 172 56 20 38 85 35 96
88 83 71 53 50 54 57 55 48 29 20 24 14 -5 -18 21 14 -4 18 -14 6 31 31 51 28 15 112 46 134 47 -25 -29 51 147 41 36 67 141 78 23 22 78 36 31 111
81 81 77 79 60 59 55 49 51 41 35 23 12 1 43 121 17 2 4 -19 2 16 29 13 37 26 182 58 -35 -29 -16 -10 -64 60 5 57 78 9 108 15 27 40 52 48 102
83 95 90 84 62 58 62 20 -5 45 26 17 23 18 48 36 25 15 -1 -13 -8 20 18 35 37 24 142 25 -83 -16 31 68 29 64 -17 10 24 5 50 82 46 21 49 172 74
76 92 97 85 64 60 51 -39 46 76 61 21 61 48 108 9 12 4 3 -4 2 5 28 3 -9 -6 64 200 61 3 79 53 91 52 54 21 122 29 26 107 14 88 53 105 169
68 79 85 69 47 43 -32 -5 55 50 24 157 18 31 -17 18 30 9 10 -5 -0 -0 -9 28 -26 -13 61 141 129 135 -10 91 117 73 74 74 34 15 30 153 65 -4 29 83 183
71 75 75 60 56 -9 15 8 41 1 13 29 59 16 11 25 17 21 12 2 15 18 6 30 18 34 21 41 50 69 111 109 47 91 84 72 18 -17 74 50 16 5 55 95 46
71 76 75 82 7 23 40 50 44 10 37 40 61 21 37 1 3 31 16 -2 4 7 20 15 12 27 14 -11 -11 4 13 46 94 144 31 38 -67 52 -3 21 15 60 74 13 109
87 79 78 -23 18 -7 -7 3 -23 5 28 84 50 23 42 22 37 35 35 -4 6 16 20 10 -15 10 9 -8 -24 25 23 -23 5 164 115 19 53 52 -61 -48 113 90 89 50 -30
89 97 84 30 6 11 53 -18 -18 8 30 45 54 49 34 -2 22 57 15 2 -7 22 4 26 41 11 1 -13 17 52 12 -41 -2 57 45 27 106 118 153 143 65 4 31 62 101
132 133 6 -41 46 17 -27 -23 31 -20 4 58 89 37 2 30 -10 61 24 37 -6 19 19 17 9 15 3 31 -3 -2 -41 -4 -1 11 45 48 -18 86 91 104 4 -27 -58 -35 -7
162 127 34 9 1 -27 -25 9 42 -9 14 5 55 46 22 -1 10 68 38 12 21 14 32 38 52 29 15 -28 51 -10 6 41 14 19 -51 -25 3 31 -33 50 -74 13 5 21 4
170 29 12 21 9 -30 4 73 57 -39 -41 -23 31 21 51 7 -0 62 62 40 38 48 -3 24 45 67 25 10 15 -7 26 1 -8 -6 32 27 48 47 54 41 25 14 90 30 34
5 -14 15 51 21 -4 40 9 -5 -1 9 -9 -55 11 -37 20 -1 15 19 49 9 13 49 49 11 60 40 16 14 22 37 27 9 12 51 74 206 157 53 57 24 47 64 103 106
19 16 131 63 22 33 49 23 -5 -18 20 3 -29 -58 -48 15 -1 10 34 -0 26 -4 25 9 34 59 23 60 1 31 14 11 11 21 44 49 110 82 78 61 21 66 106 144 101
7 23 126 44 44 36 28 10 -8 -29 21 39 -14 -59 -64 -49 -23 -31 2 9 27 35 34 11 8 25 29 19 26 17 20 7 5 9 57 44 -57 91 78 50 56 177 232 148 64
21 -2 75 15 21 23 -1 39 1 5 9 -2 26 -2 -17 -29 -11 -9 -0 10 43 45 8 23 29 22 28 124 30 37 26 18 34 33 26 40 128 40 79 102 101 139 146 75 47
25 48 36 52 17 14 16 7 3 32 35 -27 15 -3 -2 -14 3 -4 7 17 36 57 66 57 39 26 19 40 108 53 24 18 15 13 8 60 119 41 67 67 32 54 65 78 69
52 115 109 78 57 125 68 90 72 41 -0 52 24 -8 -3 -9 7 -15 -2 9 25 35 63 68 96 39 36 109 61 63 24 110 24 45 53 49 42 60 64 76 50 87 98 30 74
64 71 78 -8 11 26 37 29 27 16 4 -13 54 -0 9 -0 -11 3 15 -7 -10 58 71 32 60 32 26 42 29 103 86 203 23 37 23 34 22 -36 30 55 45 81 152 65 55
70 59 50 35 34 44 34 30 44 63 34 44 64 63 22 45 123 114 92 48 50 121 105 95 48 40 73 28 87 111 -16 16 31 21 21 26 25 78 103 82 82 74 145 90 63
Wind_Speed
8 11 13 16 18 21 23 25 31 34 37 38 40 41 41 41 42 35 37 21 28 27 33 36 34 38 39 40 17 49 52 51 36 23 22 35 36 37 36 39 34 35 43 43 44
5 8 11 13 15 18 21 24 27 29 34 39 42 43 43 41 42 42 35 18 19 25 37 38 35 32 39 47 48 38 48 41 38 28 46 34 36 37 39 40 45 46 45 45 47
3 6 8 11 13 15 18 21 24 27 31 36 39 42 43 42 40 18 22 19 23 31 43 42 39 32 34 31 36 40 44 28 18 60 42 34 33 36 35 40 44 46 43 47 42
8 6 7 9 11 13 15 18 21 25 28 32 39 41 41 24 26 22 17 18 22 36 42 39 35 38 47 48 37 36 36 22 33 42 36 15 32 28 39 43 39 43 46 48 43
14 10 7 8 10 12 14 16 19 22 26 30 36 38 21 20 18 21 14 16 21 30 44 40 32 33 21 37 35 35 30 20 20 27 17 47 25 35 36 41 45 44 47 45 30
27 23 19 14 11 10 12 15 19 23 25 29 33 38 32 25 22 20 17 14 36 34 45 42 38 23 25 16 26 32 27 17 18 25 25 20 24 18 33 37 43 45 43 45 40
41 39 36 30 25 18 16 16 19 23 25 28 30 28 35 29 24 20 15 22 30 47 49 42 46 29 29 35 32 33 34 24 14 30 32 11 19 13 35 34 38 44 38 40 40
51 51 49 45 37 31 24 19 20 25 25 27 28 30 29 21 20 21 17 26 45 51 52 48 44 46 31 26 29 40 31 28 27 45 14 14 18 52 48 35 36 36 41 42 45
61 60 57 49 43 37 31 23 20 25 27 28 28 28 27 19 25 25 27 14 34 54 52 49 47 49 27 21 46 42 39 33 38 47 31 34 18 33 45 41 40 39 40 33 14
63 59 54 50 45 42 36 19 22 28 26 27 28 25 29 23 25 24 21 28 26 53 53 54 52 36 31 46 46 32 31 34 32 36 27 31 36 52 48 39 41 40 36 29 33
57 53 49 48 47 46 42 25 26 23 24 26 28 25 27 25 28 28 27 26 36 51 55 54 53 49 33 11 26 31 28 27 36 32 31 34 26 51 37 20 57 7 54 29 26
52 52 48 42 40 41 16 21 11 36 11 30 32 23 23 25 25 29 30 32 33 43 50 54 49 38 25 13 16 18 20 35 32 33 33 27 32 40 35 35 41 44 49 19 20
49 46 46 47 44 12 22 29 23 23 23 27 28 19 23 24 27 28 33 36 31 39 58 57 54 24 28 12 4 10 23 22 26 30 27 24 30 40 49 30 32 14 16 17 18
54 51 50 50 29 16 19 23 19 13 9 22 21 20 23 26 25 29 34 36 36 35 47 59 52 52 39 28 33 52 39 26 18 25 37 28 38 43 45 24 39 19 31 58 7
58 54 50 17 44 19 34 21 20 19 27 33 23 23 24 29 26 25 27 41 36 28 53 58 53 55 55 42 21 31 20 25 23 14 27 18 30 29 37 37 16 26 38 49 53
63 57 51 22 15 30 34 22 21 20 16 27 25 20 21 24 17 22 25 28 22 51 42 61 57 48 46 27 47 49 45 39 36 10 31 11 6 26 12 17 38 48 40 38 46
65 58 28 16 22 21 17 22 18 14 20 19 20 20 22 14 16 14 15 18 26 17 28 23 49 35 45 42 30 26 46 35 43 39 45 29 38 26 17 18 34 35 18 54 32
64 53 19 14 17 15 18 21 9 14 12 23 17 17 17 19 8 9 10 15 20 41 44 9 16 4 7 40 36 45 51 41 41 39 54 37 34 17 19 24 27 25 29 22 10
60 32 23 23 19 16 18 12 6 10 31 38 13 7 13 13 10 6 3 8 14 9 42 56 15 9 6 16 22 42 45 56 57 63 34 27 17 17 18 20 21 18 21 21 23
59 28 15 28 21 15 7 11 3 10 27 30 21 6 6 6 12 10 4 2 4 16 5 59 56 6 12 14 36 55 47 45 42 44 41 26 33 8 15 18 21 18 22 20 25
38 33 29 24 20 12 4 4 3 12 15 15 7 5 9 4 12 12 5 24 14 20 10 40 64 28 44 28 33 23 41 49 54 44 41 37 31 30 14 21 23 19 24 25 32
41 37 31 22 18 16 11 7 9 26 20 19 15 18 29 39 20 12 19 13 28 21 16 22 48 35 8 28 18 56 39 31 47 41 38 39 33 12 19 21 17 18 23 29 31
47 41 28 21 24 24 26 19 31 38 31 27 22 20 37 30 39 45 45 46 50 26 32 33 33 58 49 47 44 29 21 54 52 43 44 48 27 26 20 17 18 17 20 20 26
41 42 30 26 22 34 39 43 49 33 29 43 48 43 32 28 32 39 44 50 54 40 36 43 51 56 71 49 36 64 58 49 42 57 44 24 15 14 8 12 18 18 19 18 23
40 40 53 36 43 55 49 53 50 46 38 26 39 28 31 32 31 18 33 52 46 34 42 41 58 67 75 31 47 55 63 63 39 54 57 27 41 29 10 8 14 15 18 19 23
51 49 55 46 39 38 37 37 35 43 40 43 29 35 37 26 30 48 47 42 32 38 42 43 43 75 85 50 46 41 58 66 46 49 46 53 38 11 7 10 14 15 14 17 19
58 53 43 43 47 44 44 51 52 56 46 56 54 55 54 40 45 49 52 47 47 50 46 48 50 69 88 79 46 65 46 73 49 48 50 49 43 22 8 15 18 14 13 13 14
Wind_Direction
206 195 192 193 194 195 195 201 218 230 233 229 230 234 237 241 237 181 180 170 136 113 137 167 159 192 196 231 183 284 263 270 302 309 6 64 55 42 58 91 59 69 93 90 97
186 177 181 183 188 191 194 195 199 204 215 229 239 243 244 248 221 199 169 84 80 112 154 166 158 178 291 258 267 321 309 320 289 270 181 64 64 80 99 67 64 73 85 97 101
242 196 191 189 186 185 186 186 191 195 202 212 224 249 265 264 281 315 117 111 123 141 177 202 222 336 351 208 237 330 329 2 279 163 174 157 55 24 67 92 95 95 97 110 99
291 258 219 193 187 182 179 178 178 181 186 197 225 250 259 313 348 353 75 90 109 149 180 201 198 225 311 250 239 350 352 48 114 158 207 45 72 47 75 126 84 98 107 112 107
298 278 239 192 165 161 154 151 154 161 171 183 201 246 296 111 170 38 73 85 108 137 186 193 194 351 211 229 259 341 2 354 326 273 344 194 48 83 79 80 96 100 113 107 78
304 294 277 252 215 184 164 151 142 143 150 162 178 219 137 127 21 61 90 95 154 149 196 202 220 3 69 281 7 15 12 27 326 294 0 84 261 30 75 83 97 110 103 106 96
312 306 297 283 269 244 227 201 171 150 141 143 146 128 164 173 17 63 98 132 148 187 215 201 258 339 359 296 34 39 1 327 342 284 303 54 358 297 219 83 103 110 97 111 104
316 314 309 300 282 268 247 219 177 158 139 132 137 147 153 124 302 123 112 148 181 201 217 250 279 259 332 5 326 330 346 299 312 252 33 315 4 196 203 139 105 100 116 118 119
322 320 314 299 284 271 254 226 180 140 127 116 125 126 191 41 147 151 144 132 162 210 215 232 259 259 351 43 324 299 273 26 38 219 281 289 320 143 188 141 123 119 112 99 16
317 310 302 293 282 273 255 157 92 77 116 131 177 153 176 155 131 126 118 144 284 206 234 234 248 302 327 340 328 309 237 83 46 133 311 298 273 190 216 233 188 135 123 89 106
308 301 292 286 279 274 282 61 67 78 138 148 89 143 62 117 94 122 126 136 158 243 234 229 255 281 316 51 34 101 152 112 77 116 104 118 275 170 146 101 201 13 201 117 105
302 298 291 276 264 250 102 126 235 298 168 188 186 165 69 83 105 129 128 141 144 237 247 242 263 304 350 72 103 82 99 28 65 97 115 77 101 220 148 138 158 153 180 125 105
298 293 288 281 267 99 158 179 218 218 218 205 161 139 130 103 129 129 134 149 139 175 235 243 253 329 340 341 178 103 8 71 38 86 360 0 306 245 237 132 140 129 295 290 154
297 293 290 285 4 109 145 170 166 93 140 128 115 125 106 132 139 129 145 151 174 179 198 247 270 273 315 318 292 292 310 11 38 360 320 305 294 238 211 132 168 130 151 203 117
296 291 286 36 274 47 0 80 70 82 62 81 106 72 103 127 114 124 135 171 179 164 251 238 268 280 277 294 335 331 12 339 348 9 350 4 304 226 184 168 96 138 149 166 180
298 291 285 46 82 179 299 31 88 79 58 88 83 94 112 141 95 62 139 156 164 220 203 248 266 287 279 306 280 275 295 299 312 5 314 21 9 353 47 320 288 203 168 164 163
297 288 304 43 46 13 110 114 75 70 77 68 100 107 140 112 138 54 112 143 161 145 187 175 232 306 288 293 310 319 272 302 305 295 301 328 313 340 73 83 115 156 140 219 171
297 282 40 100 354 79 96 126 92 75 145 29 72 111 126 148 88 49 70 141 161 194 222 78 174 146 344 281 292 281 278 292 295 296 279 306 312 357 63 92 124 130 132 113 40
298 13 39 48 107 91 120 146 92 153 353 338 28 76 145 155 167 122 104 163 165 155 202 225 302 313 163 324 297 289 281 273 279 275 296 326 347 19 20 33 27 37 29 8 359
330 18 42 16 45 74 98 201 161 178 342 334 345 23 181 169 179 186 218 308 230 186 190 223 275 21 303 314 292 274 292 284 291 288 290 315 322 3 7 14 11 11 352 357 339
11 12 19 34 39 27 340 338 271 210 349 339 308 255 206 210 206 205 255 311 307 310 274 276 255 305 282 286 299 299 279 272 268 286 292 297 306 328 7 352 348 3 15 351 328
358 356 19 26 7 359 332 323 326 331 343 338 320 315 313 312 310 268 259 283 319 313 292 289 278 289 284 301 307 242 281 288 271 289 299 304 307 3 353 2 22 11 351 341 337
347 343 14 17 346 342 332 325 325 321 321 317 315 303 307 304 306 301 302 284 278 298 295 278 285 274 279 281 268 287 284 264 273 288 283 292 293 319 335 350 2 14 18 9 350
358 352 4 4 350 335 330 326 322 326 319 308 305 307 306 304 299 300 299 287 291 286 293 292 275 271 256 270 286 264 268 278 274 264 283 333 351 327 52 32 24 34 36 50 13
4 350 343 345 332 328 329 322 321 321 317 321 310 305 308 304 305 281 294 285 297 291 292 286 272 270 258 286 275 280 269 261 276 270 267 311 300 306 335 13 30 30 26 11 10
353 348 337 334 333 332 330 327 322 317 314 311 312 307 308 293 290 297 301 289 280 292 292 279 271 263 255 276 280 287 250 234 275 277 280 275 297 39 83 11 40 21 33 6 7
350 346 346 337 331 329 327 323 318 314 312 304 302 301 301 307 306 298 302 296 299 291 292 286 276 265 253 254 285 268 281 267 281 280 276 274 278 312 328 323 359 7 17 21 23